Ohio State University, OH

10:27 PM EDT on April 23, 2017 (GMT -0400)
Ohio State University

Weather History for KOSU - May, 2012

Change the Weather History Date:

Sunday, May 6, 2012

  Actual Average Record
Temperature  
Mean Temperature 66 °F -  
Max Temperature 80 °F 68 °F 86 °F (2000)
Min Temperature 52 °F 47 °F 39 °F (2005)
Growing Degree Days 16 (Base 50)    
Moisture  
Dew Point 51 °F    
Average Humidity 61    
Maximum Humidity 87    
Minimum Humidity 37    
Precipitation  
Precipitation 0.00 in - - ()
Sea Level Pressure  
Sea Level Pressure 30.00 in    
Wind  
Wind Speed 4 mph (North)    
Max Wind Speed 8 mph    
Max Gust Speed -    
Visibility 10 miles    
Events      
Averages and records for this station are not official NWS values.
T = Trace of Precipitation, MM = Missing Value Source: NWS Daily Summary

Daily Weather History Graph

Daily Weather History Graph

Search for Another Location

Airport or City:

Trip Planner

Search our weather history database for the weather conditions in past years. The results will help you decide how hot, cold, wet, or windy it might be!

Date:

Astronomy

May. 06, 2012 Rise Set
Actual Time 6:25 AM EDT 8:32 PM EDT
Civil Twilight 5:55 AM EDT 9:02 PM EDT
Nautical Twilight 5:19 AM EDT 9:39 PM EDT
Astronomical Twilight 4:39 AM EDT 10:19 PM EDT
Moon 9:36 PM EDT (5/6) 6:35 AM EDT (5/6)
Length of Visible Light 15h 06m
Length of Day
14h 07m
Full, 100% of the Moon is Illuminated
May 6
Full
May 12
Last Quarter
May 20
New
May 28
First Quarter
Jun 4
Full

Hourly Weather History & Observations

Time (EDT) Temp. Dew Point Humidity Pressure Visibility Wind Dir Wind Speed Gust Speed Precip Events Conditions
12:53 AM 57.0 °F 53.1 °F 87% 30.01 in 10.0 mi North 5.8 mph - N/A   Clear
1:53 AM 55.9 °F 51.1 °F 84% 30.01 in 10.0 mi North 4.6 mph - N/A   Clear
2:53 AM 55.0 °F 48.9 °F 80% 30.00 in 10.0 mi North 3.5 mph - N/A   Clear
4:53 AM 53.1 °F 48.0 °F 83% 29.99 in 10.0 mi North 3.5 mph - N/A   Clear
5:53 AM 52.0 °F 48.0 °F 86% 29.99 in 10.0 mi North 3.5 mph - N/A   Clear
6:53 AM 52.0 °F 48.0 °F 86% 30.02 in 10.0 mi NNW 3.5 mph - N/A   Clear
7:53 AM 57.0 °F 48.9 °F 74% 30.05 in 10.0 mi North 5.8 mph - N/A   Clear
8:53 AM 61.0 °F 50.0 °F 67% 30.06 in 10.0 mi North 4.6 mph - N/A   Clear
9:53 AM 64.9 °F 51.1 °F 61% 30.07 in 10.0 mi Calm Calm - N/A   Clear
10:53 AM 68.0 °F 52.0 °F 56% 30.06 in 10.0 mi Variable 3.5 mph - N/A   Clear
11:53 AM 72.0 °F 48.9 °F 44% 30.03 in 10.0 mi Calm Calm - N/A   Clear
12:53 PM 75.9 °F 50.0 °F 40% 30.02 in 10.0 mi NNW 3.5 mph - N/A   Clear
1:53 PM 77.0 °F 48.9 °F 37% 30.01 in 10.0 mi Calm Calm - N/A   Clear
2:53 PM 79.0 °F 54.0 °F 42% 30.01 in 10.0 mi NNE 4.6 mph - N/A   Clear
3:53 PM 79.0 °F 53.1 °F 40% 29.99 in 10.0 mi WNW 3.5 mph - N/A   Clear
4:53 PM 79.0 °F 52.0 °F 39% 29.99 in 10.0 mi NNE 3.5 mph - N/A   Clear
5:53 PM 78.1 °F 53.1 °F 42% 29.96 in 10.0 mi NE 4.6 mph - N/A   Clear
6:53 PM 73.9 °F 55.0 °F 52% 29.96 in 10.0 mi North 5.8 mph - N/A   Clear
7:53 PM 71.1 °F 52.0 °F 51% 29.94 in 10.0 mi North 8.1 mph - N/A   Clear
8:53 PM 69.1 °F 48.9 °F 49% 29.95 in 10.0 mi North 4.6 mph - N/A   Clear
9:53 PM 66.0 °F 50.0 °F 56% 29.94 in 10.0 mi Calm Calm - N/A   Clear
10:53 PM 63.0 °F 52.0 °F 67% 29.97 in 10.0 mi NNW 8.1 mph - N/A   Clear
11:53 PM 61.0 °F 52.0 °F 72% 29.96 in 10.0 mi NE 3.5 mph - N/A   Clear